Regional Weather Roundup
Issued by NWS

Home | Current Version | Previous Version | Text Only | Print | Product List | Glossary On
Versions: 1 2 3 4 5 6 7 8 9 10 11 12 13 14 15 16 17 18 19 20 21 22 23 24 25 26 27 28
000
ASUS46 KSEW 181710
RWRWA

WASHINGTON REGIONAL WEATHER ROUNDUP
NATIONAL WEATHER SERVICE SEATTLE WA
1000 AM PDT WED OCT 18 2017

NOTE:"FAIR" INDICATES FEW OR NO CLOUDS BELOW 12,000 FEET WITH NO
SIGNIFICANT WEATHER AND/OR OBSTRUCTIONS TO VISIBILITY.

WAZ507-509-555>559-181800-
SEATTLE, TACOMA, EVERETT, AND VICINITY

CITY           SKY/WX    TMP DP  RH WIND       PRES   REMARKS
EVERETT        CLOUDY    51  42  71 SE15G22   29.84F
BOEING FIELD   LGT RAIN  49  44  83 S8        29.85F
RENTON         LGT RAIN  51  46  83 S6        29.84F
SEATAC AIRPORT LGT RAIN  49  44  83 SE13      29.84F
JBLM-MCCHORD   LGT RAIN  49  49 100 SE9       29.84F
PUYALLUP       DRIZZLE   52  50  93 VRB5      29.85F
BREMERTON      NOT AVBL
JBLM-FT LEWIS  LGT RAIN  50  50 100 SE13      29.82F
TACOMA NARROWS LGT RAIN  48  47  96 SE6       29.83F FOG
$$

WAZ001-503-506-510-514-515-181800-
NORTH INTERIOR

CITY           SKY/WX    TMP DP  RH WIND       PRES   REMARKS
BELLINGHAM     LGT RAIN  52  47  83 SE30G43   29.71F
FRIDAY HARBOR  LGT RAIN  51  49  92 SE25G36   29.69F
EASTSOUND      LGT RAIN  52  46  82 S20G30    29.66F
PORT ANGELES   LGT RAIN  46  45  96 E5        29.65F FOG
EDIZ HOOK      RAIN      46  44  92 CALM      29.65F
PORT TOWNSEND  PTSUNNY   52  48  87 SE23G31   29.71F
NAS WHIDBEY    LGT RAIN  56  45  66 SE35G46   29.76F
ARLINGTON      CLOUDY    51  47  86 SE10      29.83F
BURLINGTON     PTSUNNY   52  48  87 SE15G21   29.78F
$$

WAZ020-022-039-040-504-511-512-181800-
SOUTHWEST INTERIOR

CITY           SKY/WX    TMP DP  RH WIND       PRES   REMARKS
SHELTON        RAIN      48  47  96 CALM      29.80F FOG
OLYMPIA        LGT RAIN  51  50  96 S9        29.83F FOG
CHEHALIS       LGT RAIN  52  52 100 S14       29.87F
KELSO          LGT RAIN  53  52  96 S8G16     29.92F
VANCOUVER      LGT RAIN  52  52 100 SE9       29.95F
SCAPPOOSE, OR  LGT RAIN  50  50 100 CALM      29.93F FOG
PORTLAND, OR   LGT RAIN  51  50  96 E14       29.96F
$$

WAZ021-516-517-181800-
WASHINGTON COAST

CITY           SKY/WX    TMP DP  RH WIND       PRES   REMARKS
FORKS          RAIN      54  52  93 S18G32    29.61F FOG
HOQUIAM        LGT RAIN  55  53  93 S17G24    29.80S FOG
ASTORIA, OR    LGT RAIN  57  54  89 S14G31    29.84F
$$

WAZ019-023-024-040-567>569-181800-
CASCADE MOUNTAINS AND COLUMBIA GORGE

CITY           SKY/WX    TMP DP  RH WIND       PRES   REMARKS
STAMPEDE PASS  MIX PCPN  36  34  92 VRB3      29.90F
TROUTDALE, OR  LGT RAIN  51  48  89 E10       29.97F
HOOD RIVER, OR RAIN      45  41  87 CALM      29.99S
THE DALLES, OR PTSUNNY   50  44  80 CALM      29.99F
$$

WAZ026-027-041>044-520-521-181800-
EAST SLOPES

CITY           SKY/WX    TMP DP  RH WIND       PRES   REMARKS
OMAK           CLOUDY    47  28  47 S8        29.94S
WENATCHEE      PTSUNNY   44  33  65 W5        29.94F
ELLENSBURG     PTSUNNY   47  35  63 CALM      29.94F
YAKIMA         PTSUNNY   49  32  52 CALM      29.95F
SUNNYSIDE ARPT CLOUDY    48  42  79 CALM      29.96F
YAKIMA TC      PTSUNNY   46  29  52 CALM      29.92F
$$

WAZ028-034-035-181800-
COLUMBIA BASIN

CITY           SKY/WX    TMP DP  RH WIND       PRES   REMARKS
EPHRATA        PTSUNNY   47  29  49 N5        29.95F
MOSES LAKE     CLOUDY    48  36  63 S5        29.96F
PASCO          CLOUDY    52  47  83 CALM      29.98S
RICHLAND ARPT  CLOUDY    56  45  67 CALM      29.98S
HERMISTON, OR  CLOUDY    52  47  83 CALM      29.97F
$$

WAZ036>038-181800-
NORTHEAST WASHINGTON

CITY           SKY/WX    TMP DP  RH WIND       PRES   REMARKS
SPOKANE GEIGER PTSUNNY   47  40  76 S8        29.97F
SPOKANE FELTS  CLOUDY    50  35  56 N5        29.98F
FAIRCHILD AFB  CLOUDY    48  39  73 S7        29.96F
COEURDALENE,ID PTSUNNY   49  37  63 S8        29.99F
DEER PARK      CLOUDY    47  28  47 NE3       29.99F
$$

WAZ029>033-181800-
SOUTHEAST WASHINGTON

CITY           SKY/WX    TMP DP  RH WIND       PRES   REMARKS
PULLMAN        LGT RAIN  50  41  71 E8        30.02S
LEWISTON, ID   CLOUDY    51  41  68 E5        30.02S
WALLA WALLA    LGT RAIN  56  50  80 E5        29.98S
PENDLETON, OR  CLOUDY    53  45  74 SE6       29.97F
$$




USA.gov is the U.S. government's official web portal to all federal, state and local government web resources and services.